Tracking 33195 objects as of 8-Feb-2026
HD Live streaming from Space Station
objects crossing your sky now

STARLINK-36150

Track STARLINK-36150 now!
10-day predictions


NORAD ID: 67031
Int'l Code: 2025-294B
Perigee: 450.5 km
Apogee: 451.4 km
Inclination: 43.0 °
Period: 93.5 minutes
Semi major axis: 6821 km
RCS: Unknown
Launch date: December 11, 2025
Source: United States (US)
Launch site: AIR FORCE EASTERN TEST RANGE (AFETR)
Your satellite tracking list
Your tracking list is empty




NASA's NSSDC Master Catalog

Two Line Element Set (TLE):
1 67031U 25294B   26038.46130454  .00079121  00000-0  18768-2 0  9997
2 67031  42.9966 209.8769 0000678 286.0319  74.0463 15.40779070 10168
Source of the keplerian elements: AFSPC